[[{"header":{"parameterUnit":"m.s-1","parameterCategory":2,"la1":30.2991,"la2":30.254,"lo1":-89.0895,"lo2":-89.0444,"dy":0.0017,"dx":0.0017,"nx":28,"ny":28,"refTime":"2025-04-13T09:00:00:Z","depth":"0","parameterNumber":2,"parameterNumberName":"U-component_of_CURRENTS"},"data":[0,0,0,0,0,0,0,0,0,0,0,0,0,0,0,0,0,0,0,0,0,0,0,0,0,0,0,0,0,0,0,0,0,0,0,0,0,0,0,0,0,0,0,0,0,0,0,0,0,0,0,0,0,0,0,0,0,0,0.3435,0.3436,0,0.3541,0.3542,0.3543,0.3502,0.3499,0.3497,0.3495,0.3577,0.3581,0.3585,0,0,0,0,0,0,0,0,0,0,0,0,0,0.3343,0.3343,0.3434,0.3436,0.3438,0.3541,0.3542,0.3543,0.3502,0.3499,0.3497,0.3494,0.3576,0.3581,0.3586,0,0,0,0,0,0,0,0,0,0,0,0,0,0.3405,0.3344,0.3434,0.3432,0.3434,0.354,0.3542,0.3543,0.3503,0.3499,0.3496,0.3493,0.3574,0.358,0.3586,0.3689,0,0,0.3605,0.3608,0,0,0,0,0,0,0,0,0.3402,0.3408,0.3431,0.3433,0.3434,0.3508,0.354,0.3592,0.3503,0.3473,0.3495,0.3492,0.3556,0.3564,0.3586,0.3692,0.3696,0.3606,0.361,0.3612,0.3614,0,0,0,0,0,0,0,0.3397,0.3404,0.3473,0.3433,0.3435,0.3477,0.348,0.355,0.3528,0.3475,0.3473,0.3492,0.3556,0.358,0.3588,0.3697,0.3606,0.3611,0.3615,0.3617,0.39,0.3904,0,0,0,0,0,0,0.3388,0.34,0.347,0.3476,0.3414,0.3481,0.3485,0.3484,0.3528,0.3532,0.3494,0.349,0.3571,0.3581,0.359,0.3729,0.3612,0.3618,0.3622,0.3896,0.3901,0.3905,0,0,0,0,0,0,0.3385,0.3392,0.3465,0.3444,0.3457,0.3485,0.3486,0.3488,0.3515,0.3543,0.3546,0.3518,0.3569,0.3582,0.3665,0.3731,0.3621,0.3627,0.3892,0.3898,0.3903,0.3997,0,0,0,0,0,0,0.3381,0.339,0.3403,0.3443,0.3458,0.3556,0.3489,0.3493,0.3533,0.3528,0.3566,0.3569,0.3567,0.3656,0.3671,0.3737,0.3631,0.3887,0.3895,0.3901,0.3989,0.4005,0.4018,0,0,0,0,0,0.3377,0.3415,0.3402,0.3412,0.3468,0.356,0.3573,0.3579,0.3538,0.3583,0.3592,0.3568,0.3711,0.3665,0.3682,0.3751,0.3884,0.3893,0.3901,0.3982,0.4002,0.4018,0,0,0,0,0,0,0.3393,0.3416,0.3403,0.3445,0.3508,0.3554,0.3605,0.3598,0.3643,0.3634,0.3624,0.3633,0.3741,0.3739,0.3687,0.3855,0.3793,0.3805,0.3849,0.3868,0.3882,0.3924,0.3637,0,0,0,0,0,0.3401,0.3422,0.3468,0.3507,0.3542,0.3573,0.3612,0.3622,0.3662,0.3676,0.3701,0.3734,0.3796,0.3819,0.3886,0.3976,0.4008,0.4031,0.4046,0.4058,0.4107,0.4206,0.4234,0.3933,0.3933,0.3933,0,0,0.3415,0.3435,0.3446,0.3512,0.3554,0.3626,0.3588,0.3669,0.3722,0.3685,0.3772,0.3808,0.3839,0.3942,0.3988,0.3939,0.416,0.4069,0.4079,0.4122,0.4218,0.4247,0.4273,0.3939,0.3938,0.3937,0,0,0.3474,0.348,0.3525,0.3581,0.366,0.369,0.3715,0.3784,0.381,0.39,0.3893,0.3974,0.4043,0.4096,0.412,0.4266,0.4253,0.427,0.4361,0.4456,0.4482,0.4505,0.457,0.4598,0.4254,0.4254,0.4254,0,0.3495,0.3545,0.3564,0.3635,0.3689,0.3716,0.3798,0.3847,0.3932,0.3983,0.3939,0.4103,0.4127,0.4262,0.4303,0.4305,0.4337,0.4279,0.4475,0.4498,0.452,0.4581,0.4611,0.4259,0.4259,0.4258,0.4258,0,0.3587,0.3637,0.3684,0.3757,0.3824,0.3913,0.3975,0.4051,0.4069,0.4113,0.4261,0.4306,0.4397,0.4415,0.4398,0.4574,0.4541,0.4495,0.4423,0.4556,0.4612,0.4641,0.4267,0.4265,0.4264,0.4262,0,0,0.3603,0.3721,0.3734,0.3791,0.3897,0.3965,0.4074,0.4196,0.4276,0.4353,0.4469,0.4583,0.4608,0.4644,0.4651,0.4726,0.4896,0.4675,0.4677,0.473,0.5094,0.4943,0.4959,0.487,0.4876,0.4881,0.5064,0,0.3675,0.3809,0.3849,0.3984,0.4068,0.4129,0.4229,0.4336,0.4412,0.4537,0.4609,0.4728,0.4689,0.4742,0.4823,0.4897,0.498,0.485,0.4969,0.4973,0.4814,0.4992,0.4721,0.4852,0.5092,0.5097,0.5101,0,0.3746,0.3831,0.3965,0.4105,0.4148,0.4221,0.4388,0.4487,0.4652,0.4713,0.4839,0.4893,0.506,0.4978,0.5187,0.5099,0.5129,0.5156,0.5162,0.502,0.4878,0.4764,0.4895,0.4807,0.5145,0.5142,0.5139,0,0.3751,0.3908,0.4012,0.4061,0.4223,0.4294,0.4383,0.4544,0.4642,0.4839,0.4924,0.5103,0.5192,0.5296,0.5355,0.529,0.5548,0.5452,0.5351,0.5338,0.5137,0.5096,0.5192,0.5616,0.5615,0.5615,0.5614,0,0.3811,0.3903,0.4019,0.408,0.4218,0.4316,0.4466,0.4585,0.475,0.4883,0.5015,0.5138,0.5277,0.5413,0.545,0.5506,0.563,0.5436,0.5405,0.5157,0.5118,0.5049,0.5013,0.5622,0.562,0.5619,0.5618,0,0.3826,0.3898,0.4023,0.4173,0.4221,0.4319,0.4483,0.4593,0.4753,0.4932,0.5002,0.5208,0.5369,0.5484,0.5653,0.5604,0.5529,0.566,0.5345,0.5273,0.5025,0.5003,0.4921,0.4785,0.5586,0.5584,0.5582,0,0.3857,0.3917,0.4055,0.4112,0.4182,0.4318,0.4411,0.4578,0.4687,0.4958,0.5044,0.5252,0.5341,0.553,0.5514,0.557,0.5455,0.5348,0.5175,0.5039,0.4995,0.4818,0.4696,0.495,0.4943,0.4938,0.4933,0,0.3934,0.3959,0.4047,0.4115,0.4203,0.4309,0.4448,0.4515,0.4721,0.4828,0.4984,0.5072,0.5243,0.516,0.5231,0.5227,0.5079,0.5227,0.5191,0.4621,0.4335,0.4175,0.4796,0.4883,0.4888,0.4892,0.4895,0.4897,0.3973,0.4009,0.4061,0.4114,0.4188,0.4241,0.4243,0.4369,0.4445,0.4509,0.4746,0.4729,0.4839,0.4856,0.4847,0.4682,0.4706,0.4532,0.4556,0.4421,0.4164,0.4664,0.4634,0.4637,0.464,0.4643,0.4645,0,0.3992,0.4008,0.4057,0.4054,0.4031,0.412,0.4204,0.4131,0.4084,0.4205,0.4219,0.4228,0.4164,0.4257,0.4211,0.4066,0.3874,0.3986,0.3712,0.3657,0.4206,0.4051,0.3763,0.3763,0.3763,0.3763,0.3763,0.3763,0.3998,0.4012,0.398,0.3873,0.3853,0.372,0.3707,0.3631,0.3638,0.3496,0.3442,0.3525,0.3846,0.3945,0.3819,0.3706,0.3481,0.3267,0.3363,0.3793,0.3846,0.3896,0.3745,0.3398,0.3397,0.2595,0.2589,0.2585]},{"header":{"parameterUnit":"m.s-1","parameterCategory":2,"la1":30.2991,"la2":30.254,"lo1":-89.0895,"lo2":-89.0444,"dy":0.0017,"dx":0.0017,"nx":28,"ny":28,"refTime":"2025-04-13T09:00:00:Z","depth":"0","parameterNumber":3,"parameterNumberName":"V-component_of_CURRENTS"},"data":[0,0,0,0,0,0,0,0,0,0,0,0,0,0,0,0,0,0,0,0,0,0,0,0,0,0,0,0,0,0,0,0,0,0,0,0,0,0,0,0,0,0,0,0,0,0,0,0,0,0,0,0,0,0,0,0,0,0,0.0044,0.0043,0,0.0019,0.0019,0.0019,-0.0015,-0.0016,-0.0016,-0.0017,-0.0033,-0.0033,-0.0033,0,0,0,0,0,0,0,0,0,0,0,0,0,0.0072,0.0071,0.0044,0.0043,0.0043,0.0019,0.0019,0.0018,-0.0015,-0.0016,-0.0016,-0.0017,-0.0033,-0.0033,-0.0033,0,0,0,0,0,0,0,0,0,0,0,0,0,0.0055,0.0071,0.0044,0.0024,0.0022,0.0019,0.0019,0.0018,-0.0015,-0.0016,-0.0016,-0.0017,-0.0033,-0.0033,-0.0033,-0.0015,0,0,-0.0032,-0.0032,0,0,0,0,0,0,0,0,0.0056,0.0054,0.0027,0.0025,0.0023,0.0004,0.0023,0.0008,-0.0015,-0.0001,-0.0017,-0.0018,-0.0019,-0.002,-0.0023,-0.0016,-0.0017,-0.0032,-0.0032,-0.0032,-0.0032,0,0,0,0,0,0,0,0.0057,0.0054,0.0034,0.0027,0.0024,0.0019,0.0016,0.002,-0.0005,-0.0002,-0.0005,-0.0007,-0.002,-0.0023,-0.0024,-0.0017,-0.0032,-0.0032,-0.0032,-0.0032,0.0021,0.0022,0,0,0,0,0,0,0.006,0.0056,0.0035,0.0033,0.0038,0.0019,0.0015,0.0011,-0.0005,-0.0009,-0.0006,-0.0009,-0.0023,-0.0024,-0.0024,0.003,-0.0032,-0.0032,-0.0032,0.002,0.0021,0.0023,0,0,0,0,0,0,0.0061,0.0059,0.0036,0.0044,0.0041,0.002,0.0015,0.0011,0.0009,-0.0008,-0.0012,-0.0004,-0.0024,-0.0025,-0.0011,0.0028,-0.0032,-0.0032,0.0018,0.002,0.0022,0.0117,0,0,0,0,0,0,0.0062,0.0059,0.006,0.0044,0.004,0.0049,0.0016,0.0011,0.0009,0.0006,-0.0007,-0.001,-0.0024,-0.0011,-0.0011,0.0027,-0.0032,0.0016,0.0019,0.0021,0.0112,0.0122,0.013,0,0,0,0,0,0.0063,0.0076,0.0061,0.0058,0.0042,0.005,0.0048,0.003,0.001,0.0022,0.001,-0.001,0.0005,-0.0009,-0.001,0.0029,0.0015,0.0018,0.0021,0.0108,0.012,0.013,0,0,0,0,0,0,0.0093,0.0073,0.0056,0.0062,0.006,0.0044,0.0052,0.0037,0.0036,0.0033,0.0008,0.0006,0.0032,0.0015,-0.0,0.005,0.0007,0.001,0.0073,0.0084,0.0093,0.0124,-0.0032,0,0,0,0,0,0.0099,0.0099,0.0084,0.009,0.0089,0.007,0.0069,0.0062,0.0056,0.0054,0.0044,0.0038,0.0045,0.0051,0.0052,0.0082,0.0059,0.0105,0.0114,0.0122,0.0147,0.0142,0.0153,0.0033,0.0033,0.0033,0,0,0.0112,0.0101,0.0101,0.0096,0.0088,0.0116,0.0068,0.008,0.0106,0.0054,0.0087,0.0069,0.0058,0.0091,0.0102,0.0083,0.0141,0.0126,0.0133,0.0154,0.0146,0.0158,0.0169,0.0035,0.0034,0.0034,0,0,0.0156,0.0129,0.0152,0.0158,0.0158,0.0151,0.0158,0.0151,0.0148,0.0172,0.0145,0.0156,0.0157,0.0168,0.017,0.0231,0.0186,0.0223,0.0302,0.0297,0.0307,0.0315,0.0287,0.0292,0.0232,0.0232,0.0232,0,0.0173,0.0201,0.0164,0.0198,0.0217,0.0173,0.0223,0.0217,0.0219,0.0236,0.0196,0.0224,0.0202,0.0262,0.0275,0.0256,0.023,0.0262,0.031,0.0318,0.0325,0.0293,0.0298,0.0237,0.0236,0.0236,0.0235,0,0.0244,0.027,0.0287,0.0314,0.0329,0.0362,0.0354,0.0368,0.0349,0.0351,0.0389,0.0359,0.0384,0.037,0.0338,0.0392,0.0349,0.0317,0.0284,0.0343,0.0305,0.0309,0.0244,0.0242,0.024,0.0239,0,0,0.0274,0.0328,0.0334,0.0377,0.0397,0.0422,0.0463,0.0501,0.0548,0.0525,0.0594,0.0576,0.0555,0.0556,0.052,0.0507,0.0515,0.0437,0.0434,0.0413,0.0485,0.0428,0.0425,0.0486,0.0487,0.0489,0.0432,0,0.0344,0.0444,0.0446,0.0543,0.0598,0.0582,0.0638,0.0663,0.0663,0.0715,0.0681,0.0726,0.0627,0.0649,0.0621,0.0557,0.0531,0.0533,0.0428,0.0425,0.0371,0.043,0.0414,0.0361,0.0434,0.0435,0.0435,0,0.0415,0.0478,0.0591,0.0682,0.0703,0.075,0.083,0.0877,0.0921,0.0927,0.0947,0.0917,0.0922,0.0818,0.0731,0.0733,0.0621,0.0544,0.054,0.0463,0.0376,0.0316,0.0363,0.018,0.044,0.0439,0.0439,0,0.047,0.0575,0.0672,0.0703,0.0797,0.0842,0.0891,0.0948,0.1018,0.1073,0.1134,0.1103,0.1119,0.0987,0.0815,0.0777,0.0699,0.0628,0.0468,0.0461,0.0419,0.0406,0.0285,0.056,0.056,0.056,0.0561,0,0.0547,0.0621,0.0707,0.0762,0.0894,0.0925,0.1055,0.1096,0.1192,0.1322,0.1258,0.1343,0.116,0.1087,0.0892,0.0703,0.0756,0.0503,0.0457,0.0447,0.0439,0.0251,0.0133,0.0558,0.0559,0.0559,0.0559,0,0.0592,0.0647,0.0767,0.088,0.0924,0.1019,0.1164,0.1272,0.1338,0.1507,0.1542,0.1536,0.1442,0.1233,0.103,0.0823,0.0512,0.0543,0.053,0.0485,0.0145,0.0032,-0.0147,-0.0229,0.0362,0.0361,0.0359,0,0.0635,0.07,0.0845,0.0934,0.0987,0.1125,0.1244,0.1342,0.1473,0.1636,0.1745,0.1704,0.1702,0.1373,0.1007,0.0671,0.0476,0.0419,0.0343,0.0146,-0.0013,-0.0095,-0.0156,0.0312,0.031,0.0309,0.0308,0,0.0721,0.0756,0.0853,0.1028,0.1161,0.1323,0.1493,0.1617,0.1773,0.1908,0.2064,0.2068,0.1762,0.1414,0.0942,0.0701,0.0276,0.038,0.0195,-0.0037,-0.015,-0.0256,0.0307,0.0297,0.0298,0.0299,0.0299,0.03,0.0782,0.0857,0.098,0.1144,0.1308,0.1518,0.1658,0.1848,0.2065,0.227,0.2264,0.2286,0.1792,0.1146,0.0798,0.017,0.0163,-0.0042,-0.0156,-0.0215,-0.0309,0.0218,0.0143,0.0143,0.0143,0.0143,0.0143,0,0.088,0.0954,0.1099,0.1302,0.1485,0.1557,0.1834,0.1984,0.2242,0.2382,0.2473,0.2237,0.1622,0.1028,0.0176,-0.0278,-0.0422,-0.0514,-0.0627,-0.0658,-0.0167,-0.0183,-0.0354,-0.0354,-0.0354,-0.0353,-0.0353,-0.0353,0.094,0.1075,0.1136,0.1426,0.1567,0.181,0.1969,0.2194,0.2346,0.2488,0.2481,0.2455,0.2035,0.0493,-0.049,-0.0707,-0.1003,-0.1117,-0.1234,-0.0906,-0.0869,-0.0835,-0.0876,-0.1189,-0.119,-0.1658,-0.1663,-0.1667]}],[{"header":{"parameterUnit":"m.s-1","parameterCategory":2,"la1":30.2991,"la2":30.254,"lo1":-89.0895,"lo2":-89.0444,"dy":0.0017,"dx":0.0017,"nx":28,"ny":28,"refTime":"2025-04-13T09:00:00:Z","depth":"2","parameterNumber":2,"parameterNumberName":"U-component_of_CURRENTS"},"data":[0,0,0,0,0,0,0,0,0,0,0,0,0,0,0,0,0,0,0,0,0,0,0,0,0,0,0,0,0,0,0,0,0,0,0,0,0,0,0,0,0,0,0,0,0,0,0,0,0,0,0,0,0,0,0,0,0,0,0.2994,0.2995,0,0.3087,0.3088,0.3089,0.3087,0.3086,0.3085,0.3084,0.3137,0.314,0.3142,0,0,0,0,0,0,0,0,0,0,0,0,0,0.2917,0.2918,0.2993,0.2995,0.2996,0.3087,0.3088,0.3089,0.3087,0.3086,0.3084,0.3083,0.3137,0.3139,0.3142,0,0,0,0,0,0,0,0,0,0,0,0,0,0.2972,0.2918,0.2993,0.3008,0.3011,0.3087,0.3088,0.309,0.3087,0.3086,0.3084,0.3083,0.3136,0.3139,0.3143,0.3195,0,0,0.3154,0.3155,0,0,0,0,0,0,0,0,0.2968,0.2974,0.3005,0.3007,0.301,0.3077,0.3081,0.3124,0.3088,0.3055,0.3084,0.3082,0.3117,0.3122,0.3139,0.3197,0.32,0.3154,0.3156,0.3158,0.3159,0,0,0,0,0,0,0,0.2964,0.2971,0.3028,0.3006,0.301,0.3047,0.3052,0.309,0.309,0.3058,0.3059,0.3074,0.3117,0.3135,0.314,0.32,0.3154,0.3157,0.3159,0.316,0.3401,0.3405,0,0,0,0,0,0,0.2955,0.2966,0.3025,0.3031,0.2989,0.3049,0.3054,0.3054,0.309,0.3096,0.3076,0.3074,0.313,0.3136,0.3142,0.3257,0.3157,0.3161,0.3163,0.3397,0.3402,0.3407,0,0,0,0,0,0,0.2953,0.2959,0.3021,0.3004,0.3015,0.3052,0.3052,0.3057,0.3094,0.3105,0.3108,0.3109,0.3129,0.3137,0.319,0.3256,0.3162,0.3166,0.3392,0.3398,0.3404,0.3453,0,0,0,0,0,0,0.295,0.2957,0.297,0.3003,0.3016,0.3098,0.3054,0.306,0.3106,0.3105,0.3135,0.3137,0.3129,0.3184,0.3193,0.3259,0.3168,0.3386,0.3395,0.3402,0.3446,0.346,0.3472,0,0,0,0,0,0.2947,0.2975,0.297,0.2978,0.3026,0.3101,0.3112,0.3131,0.3109,0.3152,0.3152,0.3137,0.3243,0.319,0.3199,0.3268,0.3382,0.3392,0.3402,0.344,0.3457,0.3472,0,0,0,0,0,0,0.2957,0.2979,0.2973,0.3007,0.3062,0.3102,0.315,0.3151,0.3187,0.3185,0.3171,0.3176,0.3264,0.3266,0.3208,0.337,0.3321,0.3332,0.3347,0.3363,0.3376,0.3436,0.3171,0,0,0,0,0,0.2963,0.2983,0.3022,0.3056,0.3087,0.312,0.3156,0.3171,0.3202,0.3216,0.323,0.3261,0.3314,0.3331,0.3385,0.3451,0.3483,0.3514,0.3528,0.3538,0.36,0.3673,0.3697,0.3438,0.3438,0.3438,0,0,0.2972,0.2993,0.3002,0.306,0.3101,0.3164,0.3139,0.3212,0.3261,0.3219,0.3291,0.3317,0.335,0.3432,0.3472,0.3432,0.3629,0.355,0.3558,0.3616,0.3685,0.371,0.3732,0.3445,0.3443,0.3442,0,0,0.3018,0.303,0.3069,0.3117,0.319,0.3222,0.3248,0.3306,0.3334,0.3404,0.3397,0.3458,0.3521,0.3558,0.3582,0.371,0.3709,0.3734,0.3827,0.3895,0.3917,0.3936,0.3991,0.4014,0.3721,0.3722,0.3722,0,0.3033,0.3081,0.3101,0.3161,0.3204,0.3249,0.3313,0.3366,0.3429,0.3471,0.3443,0.3587,0.3592,0.3708,0.375,0.374,0.3777,0.3743,0.3909,0.3929,0.3948,0.3999,0.4025,0.3725,0.3725,0.3724,0.3724,0,0.3099,0.3154,0.3197,0.3269,0.3318,0.3398,0.3456,0.3527,0.3557,0.3601,0.3733,0.3755,0.3837,0.3854,0.3835,0.3989,0.3972,0.3921,0.3853,0.3976,0.4023,0.4049,0.373,0.3729,0.3728,0.3727,0,0,0.31,0.3217,0.3234,0.3285,0.3382,0.3431,0.3534,0.3647,0.3736,0.3806,0.3912,0.4011,0.4034,0.4071,0.4067,0.4132,0.4262,0.4092,0.4093,0.4123,0.4423,0.4222,0.423,0.4229,0.4234,0.4239,0.4394,0,0.3161,0.3266,0.3311,0.3431,0.3494,0.3563,0.3657,0.3753,0.3843,0.3962,0.4028,0.4144,0.4111,0.4161,0.4222,0.4272,0.4338,0.4227,0.4326,0.433,0.4115,0.4256,0.3931,0.4026,0.4419,0.4423,0.4426,0,0.3213,0.3278,0.3383,0.3512,0.3548,0.3628,0.3783,0.3874,0.4045,0.4119,0.4245,0.43,0.4441,0.437,0.4539,0.447,0.448,0.4499,0.4503,0.433,0.4178,0.3977,0.4058,0.4468,0.4465,0.4462,0.4459,0,0.3193,0.3334,0.3414,0.3455,0.3604,0.3678,0.3766,0.3928,0.4029,0.4236,0.4334,0.4492,0.4564,0.4652,0.4685,0.4634,0.4843,0.4747,0.4587,0.4572,0.4329,0.4281,0.4882,0.4882,0.4881,0.4881,0.488,0,0.324,0.3321,0.342,0.3476,0.36,0.3677,0.3851,0.397,0.4143,0.4268,0.4414,0.4534,0.4642,0.4745,0.477,0.4767,0.4905,0.4668,0.462,0.4332,0.4286,0.4693,0.4669,0.4887,0.4885,0.4884,0.4883,0,0.323,0.3311,0.3399,0.3534,0.3606,0.367,0.3885,0.3991,0.4178,0.4341,0.4411,0.4597,0.4721,0.4809,0.4931,0.4835,0.488,0.4833,0.4482,0.4388,0.4545,0.4523,0.4692,0.4686,0.4682,0.4678,0.4675,0,0.3271,0.3291,0.3403,0.348,0.3566,0.3707,0.3813,0.3993,0.4082,0.4363,0.44,0.4596,0.4639,0.4754,0.4702,0.4715,0.4815,0.4366,0.4192,0.4601,0.4538,0.4522,0.4506,0.39,0.3891,0.3884,0.3877,0,0.3276,0.3268,0.3331,0.3458,0.3567,0.3671,0.3815,0.389,0.4072,0.4178,0.4296,0.4365,0.4472,0.4299,0.4298,0.4262,0.4336,0.4202,0.4781,0.3962,0.3856,0.3792,0.3804,0.381,0.3817,0.3822,0.3825,0.3828,0.3258,0.3274,0.3314,0.3427,0.3526,0.357,0.3596,0.3679,0.3735,0.3796,0.4012,0.3965,0.4016,0.3808,0.3719,0.3663,0.3931,0.3746,0.377,0.3802,0.3646,0.3534,0.34,0.3404,0.3407,0.3411,0.3413,0,0.3232,0.3249,0.331,0.3379,0.3366,0.3469,0.3536,0.3454,0.3369,0.3474,0.3488,0.3223,0.3106,0.3194,0.2993,0.2959,0.2949,0.2842,0.2816,0.2886,0.2948,0.2748,0.2264,0.226,0.2256,0.2253,0,0,0.3249,0.3268,0.3255,0.3163,0.3214,0.3113,0.3088,0.2947,0.2933,0.2806,0.2751,0.2963,0.3085,0.2625,0.2579,0.2387,0.2615,0.2298,0.3232,0.3274,0.333,0.3492,0.3265,0,0,0,0,0]},{"header":{"parameterUnit":"m.s-1","parameterCategory":2,"la1":30.2991,"la2":30.254,"lo1":-89.0895,"lo2":-89.0444,"dy":0.0017,"dx":0.0017,"nx":28,"ny":28,"refTime":"2025-04-13T09:00:00:Z","depth":"2","parameterNumber":3,"parameterNumberName":"V-component_of_CURRENTS"},"data":[0,0,0,0,0,0,0,0,0,0,0,0,0,0,0,0,0,0,0,0,0,0,0,0,0,0,0,0,0,0,0,0,0,0,0,0,0,0,0,0,0,0,0,0,0,0,0,0,0,0,0,0,0,0,0,0,0,0,-0.0036,-0.0036,0,-0.0058,-0.0058,-0.0058,-0.0085,-0.0085,-0.0086,-0.0086,-0.0108,-0.0108,-0.0108,0,0,0,0,0,0,0,0,0,0,0,0,0,-0.0007,-0.0008,-0.0036,-0.0036,-0.0036,-0.0058,-0.0058,-0.0058,-0.0085,-0.0085,-0.0086,-0.0087,-0.0107,-0.0108,-0.0108,0,0,0,0,0,0,0,0,0,0,0,0,0,-0.0023,-0.0008,-0.0036,-0.0053,-0.0055,-0.0058,-0.0058,-0.0058,-0.0085,-0.0085,-0.0086,-0.0087,-0.0107,-0.0108,-0.0108,-0.0095,0,0,-0.0108,-0.0108,0,0,0,0,0,0,0,0,-0.0022,-0.0024,-0.005,-0.0052,-0.0054,-0.007,-0.0056,-0.007,-0.0085,-0.0073,-0.0086,-0.0087,-0.0095,-0.0096,-0.0098,-0.0096,-0.0096,-0.0108,-0.0108,-0.0109,-0.0109,0,0,0,0,0,0,0,-0.0021,-0.0023,-0.0044,-0.005,-0.0052,-0.0056,-0.0059,-0.0058,-0.0079,-0.0074,-0.0076,-0.0079,-0.0096,-0.0097,-0.0098,-0.0097,-0.0108,-0.0109,-0.0109,-0.0109,-0.0075,-0.0074,0,0,0,0,0,0,-0.0019,-0.0022,-0.0043,-0.0045,-0.004,-0.0056,-0.0059,-0.0063,-0.0079,-0.0082,-0.0078,-0.008,-0.0097,-0.0098,-0.0099,-0.0058,-0.0109,-0.0109,-0.0109,-0.0076,-0.0074,-0.0073,0,0,0,0,0,0,-0.0019,-0.0021,-0.0042,-0.0034,-0.0037,-0.0056,-0.006,-0.0063,-0.0063,-0.0083,-0.0086,-0.0075,-0.0097,-0.0099,-0.0092,-0.006,-0.0109,-0.0109,-0.0077,-0.0075,-0.0074,0.0007,0,0,0,0,0,0,-0.0018,-0.002,-0.0019,-0.0034,-0.0038,-0.003,-0.006,-0.0063,-0.0065,-0.0067,-0.0081,-0.0084,-0.0098,-0.0092,-0.0093,-0.0062,-0.0109,-0.0078,-0.0076,-0.0074,0.0003,0.0011,0.0018,0,0,0,0,0,-0.0017,-0.0006,-0.0019,-0.0021,-0.0037,-0.0029,-0.003,-0.0046,-0.0064,-0.0051,-0.0067,-0.0083,-0.008,-0.0091,-0.0092,-0.006,-0.0079,-0.0077,-0.0074,-0.0,0.0009,0.0018,0,0,0,0,0,0,0.001,-0.0008,-0.0023,-0.0018,-0.002,-0.0034,-0.0027,-0.004,-0.0042,-0.0045,-0.0071,-0.0073,-0.0056,-0.0071,-0.0083,-0.0046,-0.0082,-0.008,-0.0025,-0.0016,-0.0009,0.0019,-0.0109,0,0,0,0,0,0.0016,0.0016,0.0002,0.0006,0.0006,-0.001,-0.001,-0.0017,-0.0024,-0.0026,-0.0038,-0.0048,-0.0046,-0.0043,-0.0046,-0.0024,-0.0051,-0.0006,0.0002,0.0008,0.003,0.0009,0.0016,-0.0066,-0.0066,-0.0066,0,0,0.0026,0.0017,0.0016,0.0012,0.0006,0.0031,-0.0011,-0.0,0.0022,-0.0027,-0.0003,-0.0022,-0.0037,-0.0013,-0.0006,-0.0021,0.0015,0.0011,0.0017,0.0035,0.0012,0.002,0.0027,-0.0064,-0.0065,-0.0065,0,0,0.0065,0.0041,0.0063,0.0068,0.0069,0.0063,0.0069,0.0063,0.0059,0.0076,0.0048,0.0049,0.0047,0.0048,0.0047,0.0094,0.0052,0.009,0.0157,0.0136,0.0143,0.0148,0.0114,0.0116,0.0097,0.0098,0.0098,0,0.008,0.0107,0.0073,0.0104,0.012,0.0083,0.0127,0.0121,0.0119,0.013,0.0095,0.0107,0.0082,0.0124,0.0133,0.0114,0.0087,0.0124,0.0146,0.0151,0.0156,0.0119,0.012,0.0102,0.0101,0.0101,0.01,0,0.0143,0.0169,0.0185,0.021,0.0219,0.0251,0.024,0.0251,0.0233,0.0231,0.0255,0.0219,0.0231,0.0218,0.0187,0.022,0.0183,0.0154,0.0125,0.0169,0.0127,0.0127,0.0108,0.0106,0.0105,0.0104,0,0,0.0169,0.0221,0.0228,0.0268,0.0282,0.0304,0.0334,0.0363,0.0405,0.0377,0.0427,0.0401,0.0377,0.0373,0.0335,0.0313,0.03,0.0251,0.0248,0.0221,0.0243,0.0177,0.0169,0.027,0.0271,0.0272,0.0197,0,0.0235,0.0326,0.0325,0.0415,0.0465,0.0447,0.049,0.0506,0.0504,0.054,0.0495,0.0528,0.0438,0.0453,0.0413,0.0339,0.0305,0.0323,0.0203,0.0199,0.0138,0.0169,0.0193,0.0125,0.0196,0.0196,0.0196,0,0.03,0.0358,0.0459,0.0542,0.0561,0.0601,0.0665,0.0704,0.0728,0.0732,0.0734,0.0696,0.0675,0.0586,0.0472,0.0486,0.0374,0.0298,0.0293,0.0208,0.0133,0.0095,0.0121,0.0195,0.0195,0.0195,0.0195,0,0.0352,0.0449,0.0538,0.0565,0.0648,0.0685,0.0725,0.0765,0.0833,0.0862,0.0915,0.0855,0.0851,0.0711,0.0531,0.0506,0.0392,0.0336,0.0171,0.0164,0.0151,0.0142,0.0254,0.0254,0.0254,0.0254,0.0255,0,0.0425,0.0496,0.0573,0.0625,0.0746,0.0763,0.0888,0.0916,0.0994,0.1107,0.1026,0.1087,0.0881,0.0782,0.0592,0.0384,0.0432,0.0195,0.0149,0.0177,0.0171,0.0208,0.0204,0.0251,0.0252,0.0253,0.0253,0,0.0471,0.0522,0.0636,0.0736,0.0778,0.0861,0.1005,0.1106,0.1155,0.1296,0.132,0.1269,0.1134,0.0909,0.0684,0.0478,0.028,0.019,0.0226,0.0185,0.0046,0.0047,0.0002,-0.0,-0.0003,-0.0005,-0.0006,0,0.0514,0.0576,0.0713,0.0802,0.0852,0.0984,0.1098,0.1184,0.1302,0.1416,0.1499,0.141,0.1349,0.098,0.0632,0.0292,0.026,0.0074,0.0023,0.0065,0.0024,0.0029,0.0033,0.0033,0.0032,0.0031,0.003,0,0.06,0.0633,0.0726,0.0902,0.1031,0.1192,0.1346,0.1466,0.1588,0.1677,0.1765,0.1714,0.1374,0.1017,0.0541,0.0314,0.0124,0.0039,0.0103,0.0085,0.0086,0.0048,0.0053,0.0021,0.0022,0.0023,0.0023,0.0023,0.0663,0.0737,0.0857,0.1022,0.1183,0.1382,0.1515,0.166,0.1831,0.1956,0.1922,0.1833,0.1451,0.0822,0.0436,0.0042,0.0059,-0.01,-0.0092,-0.0085,-0.0076,-0.008,-0.0175,-0.0175,-0.0175,-0.0175,-0.0176,0,0.0751,0.083,0.0984,0.1184,0.1358,0.143,0.1679,0.1783,0.1949,0.2032,0.2046,0.167,0.1269,0.0855,0.0257,-0.012,-0.0124,-0.0233,-0.0151,-0.014,-0.0131,-0.0121,-0.0234,-0.0235,-0.0236,-0.0237,0,0,0.0807,0.0951,0.1022,0.1302,0.1442,0.1665,0.1804,0.1916,0.2002,0.204,0.1987,0.1883,0.1379,0.0933,0.0445,0.0108,0.0069,0.0039,0.0124,0.0288,0.0302,-0.002,0.0011,0,0,0,0,0]}],[{"header":{"parameterUnit":"m.s-1","parameterCategory":2,"la1":30.2991,"la2":30.254,"lo1":-89.0895,"lo2":-89.0444,"dy":0.0017,"dx":0.0017,"nx":28,"ny":28,"refTime":"2025-04-13T09:00:00:Z","depth":"4","parameterNumber":2,"parameterNumberName":"U-component_of_CURRENTS"},"data":[0,0,0,0,0,0,0,0,0,0,0,0,0,0,0,0,0,0,0,0,0,0,0,0,0,0,0,0,0,0,0,0,0,0,0,0,0,0,0,0,0,0,0,0,0,0,0,0,0,0,0,0,0,0,0,0,0,0,0.1797,0.1797,0,0.175,0.1749,0.1748,0.1795,0.1797,0.1799,0.1801,0.1887,0.1887,0.1887,0,0,0,0,0,0,0,0,0,0,0,0,0,0.1776,0.1777,0.1797,0.1797,0.1797,0.175,0.1749,0.1748,0.1794,0.1797,0.18,0.1802,0.1887,0.1887,0.1887,0,0,0,0,0,0,0,0,0,0,0,0,0,0.1759,0.1777,0.1797,0.1817,0.1819,0.175,0.1749,0.1748,0.1794,0.1797,0.18,0.1803,0.1887,0.1887,0.1887,0.1824,0,0,0.1888,0.1888,0,0,0,0,0,0,0,0,0.176,0.176,0.1814,0.1816,0.1817,0.1785,0.1773,0.1781,0.1793,0.1799,0.1801,0.1805,0.1865,0.1867,0.1844,0.1828,0.1832,0.1888,0.1889,0.1889,0.1889,0,0,0,0,0,0,0,0.1762,0.1761,0.1775,0.1814,0.1816,0.1776,0.1779,0.1773,0.1814,0.1799,0.1803,0.1803,0.1867,0.1843,0.1847,0.1833,0.1888,0.1889,0.1889,0.1889,0.2003,0.2006,0,0,0,0,0,0,0.1779,0.1763,0.1776,0.1774,0.18,0.1775,0.1777,0.1789,0.1811,0.1818,0.18,0.1805,0.1841,0.1846,0.185,0.1967,0.1889,0.1889,0.1889,0.2,0.2004,0.2007,0,0,0,0,0,0,0.1779,0.1781,0.1778,0.1769,0.1767,0.1774,0.1785,0.1786,0.1808,0.1811,0.182,0.1827,0.1844,0.185,0.1924,0.1964,0.1889,0.189,0.1997,0.2001,0.2005,0.208,0,0,0,0,0,0,0.1779,0.1782,0.1806,0.1771,0.1768,0.178,0.1782,0.1783,0.1801,0.1809,0.1836,0.1844,0.1847,0.1924,0.1925,0.1963,0.189,0.1994,0.1999,0.2004,0.2074,0.2086,0.2096,0,0,0,0,0,0.1778,0.1777,0.1808,0.181,0.1799,0.1782,0.1777,0.1788,0.18,0.1817,0.1864,0.1846,0.1958,0.1926,0.1926,0.1966,0.1991,0.1997,0.2004,0.2069,0.2083,0.2096,0,0,0,0,0,0,0.1769,0.1782,0.1814,0.1819,0.1831,0.1793,0.1796,0.1803,0.184,0.187,0.1873,0.1885,0.1965,0.1958,0.1923,0.202,0.1973,0.198,0.2023,0.2037,0.2048,0.206,0.189,0,0,0,0,0,0.1784,0.18,0.1808,0.1819,0.1826,0.182,0.1818,0.1838,0.1855,0.1874,0.1904,0.1943,0.1976,0.2006,0.2032,0.2072,0.2077,0.2104,0.2115,0.2125,0.2139,0.2216,0.2235,0.2028,0.2028,0.2028,0,0,0.1787,0.1793,0.1807,0.1821,0.1824,0.1838,0.1827,0.1845,0.1878,0.1878,0.1951,0.1983,0.1998,0.2064,0.2097,0.2072,0.218,0.2133,0.214,0.215,0.2224,0.2245,0.2262,0.2032,0.2031,0.2031,0,0,0.1777,0.1808,0.1822,0.1835,0.1863,0.1867,0.1885,0.1899,0.1935,0.1998,0.202,0.2089,0.2127,0.2158,0.2169,0.2255,0.2238,0.2268,0.2333,0.2408,0.2425,0.244,0.2437,0.2452,0.2273,0.2274,0.2274,0,0.1791,0.1804,0.1822,0.1834,0.1853,0.1888,0.1913,0.1936,0.1988,0.2028,0.2051,0.2149,0.2167,0.2235,0.2284,0.2278,0.2303,0.2273,0.2422,0.2437,0.2452,0.2445,0.246,0.2278,0.2277,0.2277,0.2277,0,0.1776,0.1813,0.1812,0.186,0.1887,0.1908,0.1959,0.2008,0.2064,0.2105,0.2212,0.2256,0.2327,0.2335,0.2338,0.2449,0.2424,0.2424,0.2381,0.2477,0.2463,0.2478,0.2284,0.2283,0.2281,0.228,0,0,0.175,0.18,0.1811,0.1837,0.1909,0.1915,0.1994,0.2062,0.2122,0.221,0.2303,0.2372,0.2434,0.2455,0.2477,0.2536,0.2647,0.2543,0.2545,0.2528,0.2781,0.2606,0.2604,0.2694,0.2698,0.2701,0.2716,0,0.1746,0.177,0.1812,0.186,0.1876,0.1947,0.202,0.2103,0.2185,0.2294,0.2371,0.2475,0.2468,0.2536,0.2604,0.2651,0.2698,0.2641,0.2701,0.2701,0.2527,0.262,0.2714,0.2726,0.2729,0.2732,0.2733,0,0.1729,0.174,0.179,0.1865,0.1885,0.1939,0.2054,0.2141,0.2297,0.2367,0.2493,0.2574,0.2697,0.2689,0.2805,0.2782,0.2803,0.281,0.2812,0.2637,0.2555,0.2622,0.2759,0.2757,0.2755,0.2754,0.2752,0,0.1675,0.1731,0.177,0.179,0.1884,0.1938,0.2029,0.2176,0.2275,0.2456,0.254,0.2686,0.28,0.2861,0.2901,0.2888,0.3003,0.2976,0.2813,0.2798,0.2913,0.2897,0.3061,0.3061,0.3061,0.3061,0.3061,0,0.1637,0.1646,0.1747,0.1755,0.1819,0.1933,0.2044,0.2146,0.2349,0.2472,0.2614,0.2705,0.2869,0.295,0.2952,0.292,0.3047,0.2837,0.2812,0.2937,0.2924,0.292,0.2904,0.3061,0.3061,0.3061,0.3061,0,0.1537,0.1612,0.1649,0.1762,0.1796,0.1868,0.2048,0.2131,0.2328,0.2499,0.2578,0.2787,0.2877,0.2951,0.305,0.2968,0.295,0.2901,0.2999,0.2976,0.2672,0.266,0.2719,0.2714,0.2709,0.2705,0.2702,0,0.1459,0.1477,0.1631,0.1678,0.1725,0.1827,0.1905,0.2109,0.2213,0.2497,0.2576,0.2762,0.2852,0.2825,0.2919,0.2889,0.2859,0.2815,0.2773,0.2679,0.2649,0.2644,0.2638,0.2694,0.2693,0.2692,0.2691,0,0.1291,0.1401,0.1453,0.1578,0.1662,0.1719,0.1858,0.1919,0.2175,0.2358,0.2508,0.2577,0.2676,0.2733,0.2739,0.271,0.2828,0.2765,0.2774,0.2734,0.2649,0.2623,0.2623,0.2674,0.2677,0.2678,0.2679,0,0.1179,0.1212,0.1353,0.1459,0.1564,0.1614,0.1675,0.1795,0.1931,0.227,0.2306,0.2476,0.2668,0.2638,0.2633,0.2608,0.2567,0.2474,0.2497,0.2516,0.2444,0.2305,0.2218,0,0,0,0,0,0.1033,0.1086,0.1204,0.1333,0.1448,0.1514,0.1651,0.1729,0.1962,0.2023,0.2178,0.2253,0.2316,0.2402,0.2332,0.2505,0.2544,0.2409,0.244,0.2584,0.2603,0.2537,0,0,0,0,0,0,0.0947,0.1009,0.1158,0.1218,0.1291,0.137,0.1459,0.1597,0.1643,0.1897,0.1938,0.2134,0.221,0.235,0.2305,0.2324,0.2296,0.2529,0.2523,0.2573,0.259,0.2605,0.2544,0,0,0,0,0]},{"header":{"parameterUnit":"m.s-1","parameterCategory":2,"la1":30.2991,"la2":30.254,"lo1":-89.0895,"lo2":-89.0444,"dy":0.0017,"dx":0.0017,"nx":28,"ny":28,"refTime":"2025-04-13T09:00:00:Z","depth":"4","parameterNumber":3,"parameterNumberName":"V-component_of_CURRENTS"},"data":[0,0,0,0,0,0,0,0,0,0,0,0,0,0,0,0,0,0,0,0,0,0,0,0,0,0,0,0,0,0,0,0,0,0,0,0,0,0,0,0,0,0,0,0,0,0,0,0,0,0,0,0,0,0,0,0,0,0,-0.0036,-0.0036,0,-0.0037,-0.0037,-0.0037,-0.0055,-0.0056,-0.0056,-0.0057,-0.0078,-0.0078,-0.0078,0,0,0,0,0,0,0,0,0,0,0,0,0,-0.0026,-0.0026,-0.0036,-0.0036,-0.0036,-0.0037,-0.0037,-0.0037,-0.0055,-0.0056,-0.0056,-0.0057,-0.0078,-0.0078,-0.0078,0,0,0,0,0,0,0,0,0,0,0,0,0,-0.0028,-0.0026,-0.0036,-0.0046,-0.0047,-0.0037,-0.0037,-0.0037,-0.0055,-0.0056,-0.0057,-0.0057,-0.0078,-0.0078,-0.0078,-0.0061,0,0,-0.0078,-0.0078,0,0,0,0,0,0,0,0,-0.0028,-0.0028,-0.0044,-0.0045,-0.0046,-0.0048,-0.0041,-0.0046,-0.0055,-0.0051,-0.0057,-0.0058,-0.007,-0.007,-0.0067,-0.0062,-0.0063,-0.0078,-0.0078,-0.0078,-0.0078,0,0,0,0,0,0,0,-0.0027,-0.0028,-0.0035,-0.0044,-0.0046,-0.0043,-0.0044,-0.0042,-0.0055,-0.0051,-0.0053,-0.0054,-0.007,-0.0067,-0.0067,-0.0063,-0.0078,-0.0078,-0.0078,-0.0078,-0.0072,-0.0072,0,0,0,0,0,0,-0.003,-0.0028,-0.0035,-0.0035,-0.004,-0.0042,-0.0044,-0.0046,-0.0054,-0.0057,-0.0054,-0.0055,-0.0066,-0.0067,-0.0068,-0.0052,-0.0078,-0.0078,-0.0078,-0.0072,-0.0072,-0.0072,0,0,0,0,0,0,-0.003,-0.0031,-0.0035,-0.0033,-0.0033,-0.0042,-0.0044,-0.0045,-0.0043,-0.0056,-0.0059,-0.005,-0.0067,-0.0068,-0.0067,-0.0053,-0.0078,-0.0078,-0.0072,-0.0072,-0.0072,-0.0018,0,0,0,0,0,0,-0.0029,-0.003,-0.0029,-0.0033,-0.0033,-0.0021,-0.0043,-0.0045,-0.0043,-0.0045,-0.0054,-0.0057,-0.0068,-0.0067,-0.0067,-0.0054,-0.0078,-0.0073,-0.0072,-0.0072,-0.002,-0.0016,-0.0012,0,0,0,0,0,-0.0029,-0.002,-0.0029,-0.003,-0.0033,-0.0021,-0.002,-0.0029,-0.0042,-0.0031,-0.0046,-0.0057,-0.0066,-0.0067,-0.0067,-0.0053,-0.0073,-0.0072,-0.0072,-0.0022,-0.0017,-0.0012,0,0,0,0,0,0,-0.0013,-0.0021,-0.0031,-0.0026,-0.0022,-0.0024,-0.0016,-0.0024,-0.0025,-0.0029,-0.0049,-0.0051,-0.005,-0.0059,-0.006,-0.0053,-0.0073,-0.0073,-0.0035,-0.003,-0.0027,-0.002,-0.0078,0,0,0,0,0,-0.001,-0.0008,-0.0012,-0.0007,-0.0005,-0.0011,-0.0007,-0.001,-0.0014,-0.0016,-0.0025,-0.0037,-0.0047,-0.0045,-0.0055,-0.0041,-0.0073,-0.0036,-0.0032,-0.0028,-0.0025,-0.0061,-0.0061,-0.007,-0.007,-0.007,0,0,-0.0003,-0.0007,-0.0007,-0.0004,-0.0004,0.0015,-0.001,0.0002,0.0015,-0.0017,-0.0004,-0.0025,-0.0044,-0.0036,-0.0035,-0.004,-0.0045,-0.0028,-0.0025,-0.0023,-0.0061,-0.006,-0.0059,-0.007,-0.007,-0.007,0,0,0.0025,0.001,0.0027,0.0034,0.0039,0.0036,0.0041,0.0043,0.004,0.0047,0.0022,0.0009,0.0005,-0.0007,-0.0014,0.0005,-0.0029,0.0003,0.0039,0.0004,0.0004,0.0005,-0.0042,-0.0047,0.0013,0.0013,0.0013,0,0.0034,0.0056,0.0037,0.0061,0.0072,0.0048,0.0079,0.0075,0.0076,0.0077,0.0056,0.0034,0.0016,0.0021,0.0024,0.0015,-0.0015,0.0027,0.0009,0.0009,0.0008,-0.004,-0.0046,0.0016,0.0016,0.0015,0.0015,0,0.008,0.01,0.0113,0.013,0.0138,0.0162,0.0153,0.0159,0.0143,0.0133,0.0125,0.0093,0.0083,0.0071,0.0054,0.0048,0.0024,0.0013,0.0001,0.0012,-0.004,-0.0046,0.002,0.0019,0.0018,0.0017,0,0,0.0097,0.0138,0.0144,0.0171,0.0179,0.0195,0.021,0.0221,0.0234,0.0207,0.0219,0.0182,0.0157,0.0145,0.0119,0.0087,0.0048,0.0055,0.0052,0.0013,-0.0039,-0.0042,-0.005,0.0037,0.0036,0.0036,-0.0075,0,0.0143,0.0212,0.021,0.0269,0.0306,0.029,0.0314,0.0314,0.0292,0.0295,0.0244,0.024,0.0188,0.0188,0.0146,0.0074,0.0034,0.0079,-0.0048,-0.0053,-0.0053,-0.0057,0.0033,-0.0081,-0.0082,-0.0083,-0.0084,0,0.0189,0.0233,0.0307,0.0359,0.0372,0.0398,0.0422,0.0444,0.0427,0.0408,0.0376,0.0331,0.0284,0.0238,0.0111,0.0143,0.0059,-0.0008,-0.0014,-0.0039,-0.0068,-0.0095,-0.0097,-0.0096,-0.0095,-0.0094,-0.0094,0,0.0225,0.0295,0.036,0.0378,0.0431,0.0458,0.0484,0.0483,0.0515,0.0484,0.0484,0.0405,0.0382,0.026,0.0107,0.0114,-0.0049,-0.0054,-0.0142,-0.0144,-0.0132,-0.0131,-0.0146,-0.0145,-0.0145,-0.0145,-0.0144,0,0.0275,0.0325,0.0388,0.0423,0.0507,0.0521,0.0588,0.0592,0.0615,0.0651,0.0558,0.0548,0.0388,0.0272,0.0126,-0.0037,-0.0039,-0.014,-0.0169,-0.0108,-0.0103,-0.0137,-0.0135,-0.0149,-0.0148,-0.0147,-0.0147,0,0.031,0.0348,0.0432,0.0504,0.053,0.0597,0.0678,0.073,0.0725,0.0767,0.0765,0.0665,0.0512,0.0322,0.0118,0.0004,-0.0165,-0.0224,-0.016,-0.0183,-0.0241,-0.0235,-0.0316,-0.0317,-0.0318,-0.0318,-0.0319,0,0.0339,0.0391,0.0491,0.055,0.0588,0.068,0.0753,0.0791,0.084,0.0829,0.0855,0.0729,0.0631,0.0333,0.0127,-0.0159,-0.0194,-0.0286,-0.025,-0.0237,-0.0258,-0.025,-0.0242,-0.032,-0.032,-0.0321,-0.0321,0,0.0404,0.0439,0.0501,0.0618,0.0706,0.0803,0.0894,0.0937,0.0978,0.0978,0.0928,0.077,0.0599,0.0356,0.0127,-0.0079,-0.0229,-0.0295,-0.0294,-0.026,-0.0243,-0.0261,-0.0253,-0.0324,-0.0323,-0.0323,-0.0323,0,0.0445,0.0504,0.0583,0.068,0.0797,0.0888,0.0928,0.0983,0.1032,0.102,0.0999,0.0798,0.0696,0.0396,0.0178,-0.0022,-0.0056,-0.0113,-0.0121,-0.0121,-0.0033,0.0019,-0.0006,0,0,0,0,0,0.0493,0.0549,0.064,0.0745,0.0857,0.0917,0.1013,0.1042,0.1077,0.1064,0.1036,0.087,0.0569,0.0433,0.0237,0.0154,-0.0106,-0.0083,-0.0179,-0.0339,-0.0336,-0.0267,0,0,0,0,0,0,0.052,0.0609,0.0641,0.0775,0.0853,0.0976,0.1039,0.1056,0.1042,0.1043,0.0887,0.0828,0.0532,0.0685,0.0237,0.0175,0.0088,-0.0218,-0.0222,-0.0341,-0.0338,-0.0336,-0.0263,0,0,0,0,0]}]]